Regional Weather Roundup
Issued by NWS

Home | Current Version | Previous Version | Text Only | Print | Product List | Glossary On
Versions: 1 2 3 4 5 6 7 8 9 10 11 12 13 14 15 16 17 18 19 20 21 22 23 24 25 26 27 28 29 30 31 32 33 34 35 36 37 38 39 40 41 42 43 44 45 46 47 48 49 50
000
ASUS43 KTOP 281708
RWRKS

WEATHER ROUNDUP FOR KANSAS
NATIONAL WEATHER SERVICE GOODLAND KS
1100 AM CST WED JAN 28 2015

NOTE:  "FAIR" INDICATES FEW OR NO CLOUDS BELOW 12,000 FEET WITH NO
SIGNIFICANT WEATHER AND/OR OBSTRUCTIONS TO VISIBILITY.

KSZ001>006-013>018-027>032-041>047-281800-
NORTHWEST KANSAS

CITY           SKY/WX    TMP DP  RH WIND       PRES   REMARKS
GOODLAND       CLOUDY    50  34  54 NW14      29.97S
HAYS           PTSUNNY   57  34  41 NW17      29.87R
HILL CITY      PTSUNNY   61  34  36 NW23G32   29.87R
RUSSELL        PTSUNNY   57  33  40 NW15      29.83R
$$

KSZ061>065-074>080-084>089-281800-
SOUTHWEST KANSAS

CITY           SKY/WX    TMP DP  RH WIND       PRES   REMARKS
DODGE CITY     CLOUDY    59  31  34 N16G24    29.93R
ELKHART          N/A     60  31  33 NW12        N/A
GARDEN CITY    CLOUDY    56  33  42 N18       29.94S
LIBERAL        PTSUNNY   59  37  44 NW24      29.98F
PRATT          PTSUNNY   57  34  41 W9        29.88S
$$

KSZ066>073-081>083-090>101-281800-
SOUTHEAST KANSAS

CITY           SKY/WX    TMP DP  RH WIND       PRES   REMARKS
CHANUTE        SUNNY     66  39  37 S20G28    29.93F
COFFEYVILLE    SUNNY     64  39  39 S25G31    29.96F
HUTCHINSON     SUNNY     62  37  39 SW16G25   29.86R
MEDICINE LODGE   N/A     62  38  40 W7        29.88R
NEWTON         SUNNY     61  36  39 S17G25    29.86F
PARSONS        SUNNY     65  39  38 S17G28    29.96F
WICHITA INTL   PTSUNNY   64  38  38 S21       29.85F
WICHITA JABRA  SUNNY     65  37  35 S14G24    29.85F
WICHITA MCCONL SUNNY     65  38  37 S16       29.86F
WINFIELD       SUNNY     69  31  24 S18G31    29.89F
$$

KSZ007>012-019>026-033>040-048>060-102>105-281800-
NORTHEAST KANSAS

CITY           SKY/WX    TMP DP  RH WIND       PRES   REMARKS
CONCORDIA      PTSUNNY   53  36  52 W15       29.79R
EMPORIA        SUNNY     61  38  42 S16       29.85F
LAWRENCE       SUNNY     61  38  42 S9        29.87F
MANHATTAN      SUNNY     63  38  39 SW15      29.81F
MARYSVILLE     MOSUNNY   57  36  44 SW9       29.79F
OLATHE IND     SUNNY     60  38  43 S17       29.90F
OLATHE EXE     SUNNY     59  38  45 S14G23    29.90F
SALINA         MOSUNNY   60  36  40 S9        29.81F
TOPEKA BILLARD SUNNY     62  37  39 S10       29.85F
TOPEKA FORBES  SUNNY     64  37  36 S17G24    29.85F
$$


USA.gov is the U.S. government's official web portal to all federal, state and local government web resources and services.